Weather observations for the past three days for
Naples, Naples Municipal Airport
Metric (Imperial)
Date Time (edt) Wind (kph) Vis. (km) Weather Sky Cond. Temperature (ºC) Relative Humidity Wind Chill (°C) Heat Index (°C) Pressure Precipitation (cm)
Air Dwpt 6 hour altimeter (cm) sea level (mb) 1 hr 3 hr 6 hr
Max. Min.
09 11:53 SW 24 16.09 A Few Clouds FEW033 31.1 21.7 57% 34 76.1 1014.3
09 10:53 S 13 16.09 Fair CLR 30 22.8 65% 34 76.07 1014.2
09 09:53 S 11 16.09 Fair CLR 28.9 22.8 70% 32 76.07 1013.9
09 08:53 E 11 16.09 Fair CLR 26.7 22.2 76% 29 76.05 1013.8
09 07:53 E 7 16.09 Fair CLR 25 22.8 26.1 23.9 88% 26 76.02 1013.4
09 06:53 E 6 12.87 Fair CLR 23.9 22.8 94% 23 76 1013.2
09 05:53 Calm 14.48 Fair CLR 24.4 22.8 91% 24 75.97 1012.8
09 04:53 NW 6 16.09 Fair CLR 25 23.3 90% 26 75.97 1012.8
09 03:53 Calm 16.09 Fair CLR 24.4 23.3 94% 24 76 1012.9
09 02:53 Calm 16.09 Fair CLR 25.6 23.3 87% 27 76.02 1013.5
09 01:53 Calm 16.09 A Few Clouds FEW065 26.7 23.9 28.3 26.1 85% 29 76.07 1014.0
09 00:53 Calm 16.09 Mostly Cloudy FEW018 BKN065 26.7 23.9 85% 29 76.1 1014.5
08 23:53 NW 7 16.09 Fair CLR 26.1 23.9 88% 28 76.12 1014.7
08 22:53 NW 6 16.09 Fair CLR 27.2 23.9 82% 30 76.1 1014.3
08 21:53 NW 13 16.09 Fair CLR 27.2 23.3 79% 30 76.02 1013.5
08 20:53 W 13 16.09 Fair CLR 27.8 22.8 74% 31 75.97 1012.8
08 19:53 SW 9 16.09 Fair CLR 28.3 22.8 31.1 28.3 72% 32 75.92 1012.1
08 18:53 SW 11 16.09 Fair CLR 29.4 23.3 70% 34 75.92 1011.9
08 17:53 W 13 16.09 Fair CLR 30 22.8 65% 34 75.92 1011.9
08 16:53 W 13 16.09 Fair CLR 30 22.8 65% 34 75.92 1012.1
08 15:53 W 17 16.09 Fair CLR 30 22.8 65% 34 75.97 1012.8
08 14:53 W 19 16.09 A Few Clouds FEW035 30.6 22.8 63% 35 76.05 1013.8
08 13:53 W 17 16.09 Fair CLR 30 22.2 31.1 23.9 63% 33 76.1 1014.4
08 12:53 W 17 16.09 Fair CLR 30 22.8 65% 34 76.15 1015.2
08 11:53 W 9 16.09 Partly Cloudy SCT034 30 22.8 65% 34 76.2 1015.9
08 10:53 Calm 16.09 Partly Cloudy SCT028 29.4 22.2 65% 33 76.25 1016.3
08 09:53 NE 9 16.09 Fair CLR 27.8 22.2 72% 30 76.23 1016.2
08 08:53 N 7 16.09 Fair CLR 25.6 23.3 87% 27 76.23 1016.0
08 07:53 E 6 11.27 Fair CLR 23.9 23.3 24.4 22.8 96% 23 76.17 1015.4
08 06:53 E 6 9.66 Fog/Mist CLR 22.8 22.2 96% 76.12 1014.7
08 05:53 E 9 11.27 Fair CLR 22.8 22.8 100% 76.05 1013.8
08 04:53 NE 6 11.27 Fair CLR 23.9 23.3 96% 23 76.05 1013.7
08 03:53 Calm 8.05 Fog/Mist CLR 23.3 22.8 97% 76.05 1013.7
08 02:53 Calm 12.87 Fair CLR 23.9 23.3 96% 23 76.05 1013.9
08 01:53 Calm 12.87 Fair CLR 24.4 23.9 27.2 23.9 97% 24 76.07 1014.2
08 00:53 W 7 12.87 Fair CLR 24.4 23.9 97% 24 76.12 1014.6
07 23:53 W 7 12.87 Fair CLR 24.4 23.9 97% 24 76.12 1014.8
07 22:53 Calm 14.48 Fair CLR 25 23.9 94% 26 76.12 1014.7
07 21:53 NW 6 16.09 Fair CLR 25.6 23.9 90% 27 76.1 1014.4
07 20:53 NW 7 16.09 Fair CLR 26.1 23.9 88% 28 76.1 1014.4
07 19:53 NW 13 16.09 Fair CLR 27.2 23.3 30 27.2 79% 30 76.1 1014.3
07 18:53 SW 13 16.09 Fair CLR 27.8 23.3 77% 31 76.07 1014.0
07 17:53 W 13 16.09 Fair CLR 29.4 23.9 72% 34 76.1 1014.3
07 16:53 W 13 16.09 Fair CLR 28.9 23.3 72% 33 76.1 1014.3
07 15:53 W 15 16.09 Fair CLR 29.4 23.3 70% 34 76.12 1014.7
07 14:53 SW 15 16.09 Fair CLR 28.9 23.3 72% 33 76.17 1015.3
07 13:53 W 13 16.09 Fair CLR 30 22.8 30 24.4 65% 34 76.23 1016.1
07 12:53 SW 15 G 28 16.09 Fair CLR 29.4 22.8 68% 33 76.25 1016.3
07 11:53 SW 13 16.09 Fair CLR 28.3 23.3 74% 32 76.28 1016.6
07 10:53 SW 11 16.09 Partly Cloudy SCT021 27.8 23.3 77% 31 76.28 1016.7
07 09:53 SW 13 16.09 Mostly Cloudy SCT023 BKN029 27.2 23.3 79% 30 76.28 1016.7
07 08:53 E 6 16.09 Fair CLR 26.1 23.3 85% 28 76.25 1016.4
07 07:53 E 6 16.09 Fair CLR 24.4 22.8 24.4 22.2 91% 24 76.23 1016.2
07 06:53 Calm 11.27 Fair CLR 22.8 22.2 96% 76.17 1015.5
07 05:53 SE 7 12.87 Fair CLR 22.8 21.7 94% 76.1 1014.5
07 04:53 SE 7 12.87 Fair CLR 22.2 21.7 97% 76.12 1014.6
07 03:53 E 6 14.48 Fair CLR 22.8 21.7 94% 76.12 1014.7
07 02:53 Calm 12.87 Fair CLR 23.3 21.7 91% 76.15 1015.1
07 01:53 E 6 14.48 Fair CLR 23.9 22.2 26.1 23.9 90% 23 76.2 1015.6
07 00:53 Calm 16.09 Fair CLR 24.4 22.2 88% 25 76.17 1015.6
06 23:53 SE 6 16.09 Fair CLR 25 22.2 85% 26 76.23 1016.0
06 22:53 Calm 16.09 Partly Cloudy SCT060 25.6 22.2 82% 27 76.23 1016.2
06 21:53 Calm 16.09 Mostly Cloudy BKN055 25.6 22.2 82% 27 76.2 1015.8
06 20:53 Calm 16.09 Fair CLR 26.1 22.8 82% 28 76.2 1015.6
06 19:53 W 9 16.09 Fair CLR 26.1 22.2 30 26.1 79% 28 76.17 1015.3
06 18:53 W 13 16.09 Fair CLR 27.8 22.2 72% 30 76.17 1015.3
06 17:53 SW 19 16.09 Fair CLR 28.3 21.7 67% 31 76.15 1015.0
06 16:53 SW 17 16.09 Fair CLR 28.3 21.7 67% 31 76.15 1014.9
06 15:53 SW 24 16.09 Fair CLR 29.4 22.2 65% 33 76.17 1015.3
06 14:53 SW 26 16.09 Fair CLR 29.4 21.7 63% 32 76.23 1016.1
06 13:53 SW 24 16.09 Fair CLR 29.4 22.2 30 23.3 65% 33 76.28 1016.7
06 12:53 S 20 16.09 A Few Clouds FEW034 29.4 22.8 68% 33 76.3 1017.0
Date Time (edt) Wind (kph) Vis. (km) Weather Sky Cond. Air Dwpt Max. Min. Relative Humidity Wind Chill (°C) Heat Index (°C) altimeter (cm) sea level (mb) 1 hr 3 hr 6 hr
6 hour
Temperature (ºC) Pressure Precipitation (cm)